Regional Weather Roundup
Issued by NWS Mt. Holly, NJ

Home | Current Version | Previous Version | Text Only | Print | Product List | Glossary On
Versions: 1 2 3 4 5 6 7 8 9 10 11 12 13 14 15 16 17 18 19 20 21 22 23 24 25 26 27
000
ASUS41 KPHI 101112
RWRPHI

REGIONAL WEATHER ROUNDUP
NATIONAL WEATHER SERVICE MOUNT HOLLY NJ
600 AM EST SAT DEC 10 2016

NOTE:  "FAIR" INDICATES FEW OR NO CLOUDS BELOW 12,000 FEET WITH NO
SIGNIFICANT WEATHER AND/OR OBSTRUCTIONS TO VISIBILITY.

 * = STATION DOES NOT REPORT PRECIPITATION (E.G. RAIN, SNOW, ETC.)
        OR FOG.

NJZ015>026-101200-
SOUTHERN NEW JERSEY

CITY           SKY/WX    TMP DP  RH WIND       PRES   REMARKS
POMONA         NOT AVBL
WILDWOOD*      CLEAR     31  21  66 NW8G18    30.44R WCI  23
MILLVILLE      CLEAR     26  19  74 W8        30.44R WCI  18
WRIGHTSTOWN    CLEAR     29  19  66 W7        30.36R WCI  21
MOUNT HOLLY    PTCLDY    28  17  63 W8        30.41R WCI  20
TRENTON        PTCLDY    29  20  69 W8        30.37R WCI  21

$$
NJZ001>014-101200-
NORTHERN NEW JERSEY

CITY           SKY/WX    TMP DP  RH WIND       PRES   REMARKS
SUSSEX         CLEAR     17  14  88 CALM      30.32R
ANDOVER*         N/A     20  15  81 CALM      30.33R
MORRISTOWN     CLEAR     19  18  93 CALM      30.35R
NEWARK         PTCLDY    25  17  72 SW5       30.36S WCI  19
TETERBORO      CLEAR     27  14  58 W3        30.35R
CALDWELL       CLEAR     24  15  68 CALM      30.36R
SOMERVILLE     CLEAR     19  15  84 CALM      30.35R
ALLAIRE*       CLEAR     24  22  91 SW6       30.38R WCI  17
TOMS RIVER*    CLEAR     21  18  88 SW5       30.40R WCI  15

$$
PAZ043-044-047-054-055-060>062-066>071-101200-
EASTERN PENNSYLVANIA

CITY           SKY/WX    TMP DP  RH WIND       PRES   REMARKS
PHILADELPHIA   PTCLDY    27  17  66 W7        30.43R WCI  19
NORTH PHILA    CLEAR     27  18  69 W7        30.41R WCI  19
BLUE BELL*     PTCLDY    27  19  74 CALM      30.39R
DOYLESTOWN     MOCLDY    29  19  66 W7        30.36R WCI  22
QUAKERTOWN*    PTCLDY    27  18  69 W5        30.37R WCI  21
PERKASIE*      FAIR      27  18  69 W8        30.37R WCI  18
POTTSTOWN      PTCLDY    25  17  72 CALM      30.40R
LANCASTER      PTCLDY    25  18  74 W9        30.41R WCI  15
COATESVILLE    CLEAR     25  18  74 W6        30.40R WCI  18
READING        PTCLDY    28  16  60 W10       30.38R WCI  19
ALLENTOWN      CLOUDY    28  19  69 W9        30.36R WCI  19
MOUNT POCONO   CLOUDY    20  15  81 NW7       30.23R WCI  11
HAZLETON       LGT SNOW  23  21  93 W5        30.30R WCI  17
LEHIGHTON        N/A     28  23  80 CALM      30.36R
WILKES BARRE   CLOUDY    26  21  81 W6        30.30S WCI  19

$$
DEZALL-MDZ008-012-015-019-020-101200-
DELAWARE AND EASTERN MARYLAND

CITY           SKY/WX    TMP DP  RH WIND       PRES   REMARKS
WILMINGTON     CLEAR     26  17  68 W6        30.44R WCI  19
DOVER          CLEAR     27  19  74 W5        30.44R WCI  21
GEORGETOWN     PTCLDY    28  19  69 W3        30.45R
EASTON         CLEAR     30  19  62 NW3       30.50R
ABERDEEN       MOCLDY    26  17  68 W5        30.46R WCI  20
PATUXENT       CLEAR     28  17  63 W12       30.47R WCI  18
OCEAN CITY     CLEAR     27  19  72 W5        30.47R WCI  22
WALLOPS ISLAND CLEAR     27  20  75 W6        30.48R WCI  20
CAMBRIDGE      PTCLDY    30  19  64 W5        30.46R WCI  25
SALISBURY      CLEAR     26  18  71 W6        30.46R WCI  19

$$
PAZ001-021-NYZ056-072-MDZ011-DCZ001-101200-
OTHER NEARBY LOCATIONS

CITY           SKY/WX    TMP DP  RH WIND       PRES   REMARKS
HARRISBURG     MOCLDY    29  19  66 W12       30.41R WCI  19
STATE COLLEGE  FLURRIES  25  18  74 W12       30.35S WCI  14
WILLIAMSPORT   CLOUDY    28  20  71 W10       30.36R WCI  19
BINGHAMTON     NOT AVBL
NEW YORK CITY  CLEAR     29  15  56 MISG      30.36S
BALTIMORE      PTCLDY    26  17  68 SW3       30.46R
WASHINGTON DC  PTCLDY    30  15  53 SW5       30.49R WCI  25

$$




USA.gov is the U.S. government's official web portal to all federal, state and local government web resources and services.